Station PMNT2 - 8778490 - Port Mansfield, TX Image indicating link to RSS feed of recent meteorological observations for station PMNT2


Conditions at PMNT2 as of
(3:54 pm CDT)
2054 GMT on 05/27/2024:
     

Click on the graph icon in the table below to see a time series plot of the last five days of that observation.

5-day plot - Atmospheric Pressure Atmospheric Pressure (PRES):29.80 in
5-day plot - Air Temperature Air Temperature (ATMP): 86.0 °F
5-day plot - Water Temperature Water Temperature (WTMP): 89.6 °F
Previous observations
TIME
(CDT)
5-day plot - Wind Direction
WDIR
 
5-day plot - Wind Speed
WSPD
kts
5-day plot - Wind Gust
GST
kts
5-day plot - Wave Height
WVHT
ft
5-day plot - Dominant Wave Period
DPD
sec
5-day plot - Average Wave Period
APD
sec
5-day plot - Mean Wave Direction
MWD
 
5-day plot - Atmospheric Pressure
PRES
in
5-day plot - Pressure Tendency
PTDY
in
5-day plot - Air Temperature
ATMP
°F
5-day plot - Water Temperature
WTMP
°F
5-day plot - Dew Point
DEWP
°F
5-day plot - Salinity
SAL
psu
5-day plot - Visibility
VIS
nmi
5-day plot - Tide (above MLLW)
TIDE
ft
2024-05-27 03:48 pm-------29.81- 86.0 90.0----
2024-05-27 03:42 pm-------29.81- 86.0 90.0----
2024-05-27 03:36 pm-------29.81- 86.2 90.7----
2024-05-27 03:30 pm-------29.81- 86.2 90.3----
2024-05-27 03:24 pm-------29.82- 86.5 90.3----
2024-05-27 03:18 pm-------29.82- 86.5 90.3----
2024-05-27 03:12 pm-------29.82- 86.5 90.1----
2024-05-27 03:06 pm-------29.82- 86.7 89.6----
2024-05-27 03:00 pm-------29.82-0.03 86.4 89.6----
2024-05-27 02:54 pm-------29.83- 86.0 90.3----
2024-05-27 02:48 pm--------- 85.8 90.0----
2024-05-27 02:42 pm--------- 86.2 90.0----
2024-05-27 02:36 pm--------- 86.0 89.2----
2024-05-27 02:30 pm-------29.83- 85.8 90.3----
2024-05-27 02:24 pm-------29.83- 86.0 90.3----
2024-05-27 02:18 pm-------29.83- 86.0 90.7----
2024-05-27 02:12 pm-------29.84- 86.0 90.3----
2024-05-27 02:06 pm-------29.84- 86.2 90.3----
2024-05-27 02:00 pm-------29.84-0.01 86.0 89.6----
2024-05-27 01:54 pm-------29.84- 86.0 90.0----
2024-05-27 01:48 pm-------29.84- 86.0 90.1----
2024-05-27 01:42 pm-------29.84- 86.0 90.0----
2024-05-27 01:36 pm-------29.84- 86.0 89.4----
2024-05-27 01:30 pm-------29.84- 85.6 89.6----
2024-05-27 01:24 pm-------29.84- 85.8 89.4----
2024-05-27 01:18 pm-------29.84- 85.8 89.4----
2024-05-27 01:12 pm-------29.84- 85.8 89.2----
2024-05-27 01:06 pm-------29.84- 85.8 89.4----
2024-05-27 01:00 pm-------29.84+0.01 85.6 89.4----
2024-05-27 12:54 pm-------29.84- 85.6 89.1----
2024-05-27 12:48 pm-------29.84-- 89.1----
2024-05-27 12:42 pm-------29.85-- 89.1----
2024-05-27 12:36 pm-------29.85-- 89.1----
2024-05-27 12:30 pm-------29.85- 85.6 89.1----
2024-05-27 12:24 pm-------29.85- 85.8 88.9----
2024-05-27 12:18 pm-------29.85- 86.4 88.9----
2024-05-27 12:12 pm-------29.85- 86.0 88.9----
2024-05-27 12:06 pm-------29.85- 86.2 88.9----
2024-05-27 12:00 pm-------29.85+0.04 85.8 88.7----
2024-05-27 11:54 am-------29.85- 85.6 88.7----
2024-05-27 11:48 am-------29.85- 85.3 88.5----
2024-05-27 11:42 am-------29.85- 85.5 88.7----
2024-05-27 11:36 am-------29.85- 85.5 88.7----
2024-05-27 11:30 am-------29.85- 85.3 88.5----
2024-05-27 11:24 am-------29.85- 85.3 88.5----
2024-05-27 11:18 am-------29.85- 85.1 88.5----
2024-05-27 11:12 am-------29.85- 85.3 88.7----
2024-05-27 11:06 am-------29.85- 84.9 88.3----
2024-05-27 11:00 am-------29.85+0.06 84.7 88.5----
2024-05-27 10:54 am-------29.85- 85.1 88.5----
2024-05-27 10:48 am-------29.85- 84.9 88.3----
2024-05-27 10:42 am-------29.85- 84.7 88.2----
2024-05-27 10:36 am-------29.84- 84.9 88.5----
2024-05-27 10:30 am-------29.84- 84.7 88.5----
2024-05-27 10:24 am-------29.84- 84.7 88.0----
2024-05-27 10:18 am-------29.84- 84.6 88.0----
2024-05-27 10:12 am-------29.84- 84.7 88.2----
2024-05-27 10:06 am-------29.84- 84.4 88.2----
2024-05-27 10:00 am-------29.83+0.08 84.4 88.3----
2024-05-27 09:54 am-------29.83- 84.4 88.7----
2024-05-27 09:48 am-------29.83-- 88.7----
2024-05-27 09:42 am-------29.83-- 88.7----
2024-05-27 09:36 am-------29.83-- 88.7----
2024-05-27 09:30 am-------29.83- 83.8 88.5----
2024-05-27 09:24 am-------29.83- 83.8 88.5----
2024-05-27 09:18 am-------29.82- 83.8 88.7----
2024-05-27 09:12 am-------29.82- 83.7 88.7----
2024-05-27 09:06 am-------29.82- 83.7 88.7----
2024-05-27 09:00 am-------29.82+0.08 83.7 88.9----
2024-05-27 08:54 am-------29.81- 83.7 88.7----
2024-05-27 08:48 am-------29.81- 83.5 88.7----
2024-05-27 08:42 am-------29.80- 83.5 88.9----
2024-05-27 08:36 am-------29.80- 83.7 88.9----
2024-05-27 08:30 am-------29.80- 83.5 88.7----
2024-05-27 08:24 am-------29.80- 83.3 88.9----
2024-05-27 08:18 am-------29.79- 83.5 88.7----
2024-05-27 08:12 am-------29.79- 83.5 88.9----
2024-05-27 08:06 am-------29.79- 83.5 89.1----
2024-05-27 08:00 am-------29.78+0.05 83.3 88.9----
2024-05-27 07:54 am-------29.78- 83.3 88.9----
2024-05-27 07:48 am-------29.77- 83.3 89.1----
2024-05-27 07:42 am-------29.77- 83.1 88.9----
2024-05-27 07:36 am-------29.77- 83.3 89.1----
2024-05-27 07:30 am-------29.77- 83.1 89.1----
2024-05-27 07:24 am-------29.76- 83.3 89.1----
2024-05-27 07:18 am-------29.76- 83.3 89.1----
2024-05-27 07:12 am-------29.76- 83.5 89.1----
2024-05-27 07:06 am-------29.76- 83.7 89.1----
2024-05-27 07:00 am-------29.75+0.02 83.7 89.1----
2024-05-27 06:54 am-------29.75- 83.7 89.1----
2024-05-27 06:48 am-------29.75- 83.7 89.1----
2024-05-27 06:42 am-------29.75- 83.8 89.1----
2024-05-27 06:36 am-------29.75- 83.7 89.1----
2024-05-27 06:30 am-------29.74- 83.8 89.1----
2024-05-27 06:24 am-------29.74- 84.0 89.1----
2024-05-27 06:18 am-------29.74- 84.0 89.1----
2024-05-27 06:12 am-------29.74- 84.2 89.1----
2024-05-27 06:06 am-------29.74- 83.8 89.2----
2024-05-27 06:00 am-------29.74+0.00 84.4 89.1----
2024-05-27 05:54 am-------29.74- 84.2 89.2----
2024-05-27 05:48 am-------29.73- 84.0 89.1----
2024-05-27 05:42 am-------29.73- 84.0 89.2----
2024-05-27 05:36 am-------29.73- 84.2 89.2----
2024-05-27 05:30 am-------29.73- 84.0 89.2----
2024-05-27 05:24 am-------29.73- 84.0 89.2----
2024-05-27 05:18 am-------29.73- 84.0 89.1----
2024-05-27 05:12 am-------29.73- 84.0 89.2----
2024-05-27 05:06 am-------29.73- 84.2 89.1----
2024-05-27 05:00 am-------29.73+0.00 84.2 89.2----
2024-05-27 04:54 am-------29.74- 84.0 89.2----
2024-05-27 04:48 am-------29.74- 84.2 89.1----
2024-05-27 04:42 am-------29.74- 84.2 89.2----
2024-05-27 04:36 am-------29.73- 84.0 89.2----
2024-05-27 04:30 am-------29.73- 84.2 89.2----
2024-05-27 04:24 am-------29.73- 84.0 89.2----
2024-05-27 04:18 am-------29.73- 84.0 89.2----
2024-05-27 04:12 am-------29.73- 84.2 89.2----
2024-05-27 04:06 am-------29.73- 84.2 89.2----
2024-05-27 04:00 am-------29.73-0.01 84.0 89.2----
2024-05-27 03:54 am-------29.74- 84.0 89.2----
2024-05-27 03:48 am-------29.74- 84.2 89.4----
2024-05-27 03:42 am-------29.73- 84.4 89.4----
2024-05-27 03:36 am-------29.73- 84.2 89.4----
2024-05-27 03:30 am-------29.73- 84.0 89.4----
2024-05-27 03:24 am-------29.73- 84.2 89.4----
2024-05-27 03:18 am-------29.73- 84.2 89.4----
2024-05-27 03:12 am-------29.73- 84.2 89.4----
2024-05-27 03:06 am-------29.74- 84.4 89.4----
2024-05-27 03:00 am-------29.74-0.01 84.4 89.4----
2024-05-27 02:54 am-------29.74- 84.4 89.4----
2024-05-27 02:48 am-------29.74- 84.2 89.4----
2024-05-27 02:42 am-------29.74- 84.2 89.4----
2024-05-27 02:36 am-------29.74- 84.4 89.4----
2024-05-27 02:30 am-------29.74- 84.2 89.4----
2024-05-27 02:24 am-------29.74- 84.2 89.4----
2024-05-27 02:18 am-------29.74- 84.2 89.4----
2024-05-27 02:12 am-------29.74- 84.2 89.4----
2024-05-27 02:06 am-------29.74- 84.2 89.4----
2024-05-27 02:00 am-------29.74+0.00 84.2 89.4----
2024-05-27 01:54 am-------29.74- 84.2 89.4----
2024-05-27 01:48 am-------29.74- 84.2 89.4----
2024-05-27 01:42 am-------29.74- 84.2 89.2----
2024-05-27 01:36 am-------29.74- 84.2 89.2----
2024-05-27 01:30 am-------29.74- 84.2 89.2----
2024-05-27 01:24 am-------29.74- 84.2 89.6----
2024-05-27 01:18 am-------29.74- 84.0 89.2----
2024-05-27 01:12 am-------29.74- 84.0 89.4----
2024-05-27 01:06 am-------29.74- 84.4 89.4----
2024-05-27 01:00 am-------29.74+0.02 84.2 89.6----
2024-05-27 12:54 am-------29.74- 84.2 89.4----
2024-05-27 12:48 am-------29.74- 84.0 89.4----
2024-05-27 12:42 am-------29.74- 84.0 89.4----
2024-05-27 12:36 am-------29.74- 84.2 89.4----
2024-05-27 12:30 am-------29.75- 84.0 89.4----
2024-05-27 12:24 am-------29.75- 84.0 89.4----
2024-05-27 12:18 am-------29.75- 83.8 89.4----
2024-05-27 12:12 am-------29.75- 83.8 89.4----
2024-05-27 12:06 am-------29.75- 83.8 89.2----
2024-05-27 12:00 am-------29.75+0.05 83.8 89.4----
2024-05-26 11:54 pm-------29.75- 83.8 89.4----
2024-05-26 11:48 pm-------29.75- 83.5 89.4----
2024-05-26 11:42 pm-------29.75- 83.7 89.4----
2024-05-26 11:36 pm-------29.74- 83.5 89.4----
2024-05-26 11:30 pm-------29.74- 83.7 89.4----
2024-05-26 11:24 pm-------29.74- 83.7 89.4----
2024-05-26 11:18 pm-------29.74- 83.5 89.6----
2024-05-26 11:12 pm-------29.74- 83.7 89.6----
2024-05-26 11:06 pm-------29.74- 83.7 89.6----
2024-05-26 11:00 pm-------29.74+0.04 83.7 89.6----
2024-05-26 10:54 pm-------29.74- 83.7 89.6----
2024-05-26 10:48 pm-------29.74-- 89.6----
2024-05-26 10:42 pm-------29.74-- 89.6----
2024-05-26 10:36 pm-------29.74-- 89.8----
2024-05-26 10:30 pm-------29.73- 83.8 89.8----
2024-05-26 10:24 pm-------29.73- 83.7 89.8----
2024-05-26 10:18 pm-------29.73- 83.7 89.8----
2024-05-26 10:12 pm-------29.73- 83.7 89.8----
2024-05-26 10:06 pm-------29.72- 83.7 89.8----
2024-05-26 10:00 pm-------29.72+0.04 83.8 89.8----
2024-05-26 09:54 pm-------29.72- 83.8 89.8----
2024-05-26 09:48 pm-------29.72- 83.8 89.6----
2024-05-26 09:42 pm-------29.71- 83.7 89.6----
2024-05-26 09:36 pm-------29.71- 84.0 89.6----
2024-05-26 09:30 pm---------- 89.6----
2024-05-26 09:24 pm---------- 89.8----
2024-05-26 09:18 pm-------29.71-------
2024-05-26 09:12 pm-------29.71-------
2024-05-26 09:06 pm-------29.71-------
2024-05-26 09:00 pm-------29.70+0.04- 89.6----
2024-05-26 08:54 pm-------29.70-- 89.6----
2024-05-26 08:48 pm-------29.70- 84.2 89.6----
2024-05-26 08:42 pm-------29.70- 84.4 89.8----
2024-05-26 08:36 pm-------29.70- 84.2 89.6----
2024-05-26 08:30 pm-------29.70- 84.4 89.8----
2024-05-26 08:24 pm-------29.70- 84.4 89.8----
2024-05-26 08:18 pm-------29.70-- 89.8----
2024-05-26 08:12 pm-------29.70-- 89.8----
2024-05-26 08:06 pm-------29.70-- 89.8----
2024-05-26 08:00 pm-------29.70+0.03- 89.8----
2024-05-26 07:54 pm-------29.70-- 89.8----
2024-05-26 07:48 pm-------29.69-- 90.0----
2024-05-26 07:42 pm-------29.69-- 89.8----
2024-05-26 07:36 pm-------29.68-- 90.0----
2024-05-26 07:30 pm-------29.68- 84.7 90.1----
2024-05-26 07:24 pm-------29.67- 84.9 90.0----
2024-05-26 07:18 pm-------29.68-- 90.0----
2024-05-26 07:12 pm-------29.67-- 90.1----
2024-05-26 07:06 pm-------29.68-- 90.1----
2024-05-26 07:00 pm-------29.67+0.00- 90.1----
2024-05-26 06:54 pm-------29.67-- 88.9----
2024-05-26 06:48 pm-------29.68-- 90.1----
2024-05-26 06:42 pm-------29.67-- 90.3----
2024-05-26 06:36 pm-------29.67-- 89.4----
2024-05-26 06:30 pm-------29.67-- 90.0----
2024-05-26 06:24 pm-------29.67-- 90.5----
2024-05-26 06:18 pm-------29.67- 85.8 90.3----
2024-05-26 06:12 pm-------29.67- 86.0 90.5----
2024-05-26 06:06 pm-------29.67- 85.8 90.1----
2024-05-26 06:00 pm-------29.66-0.02 85.8 90.5----
2024-05-26 05:54 pm-------29.67- 85.8 90.7----
2024-05-26 05:48 pm-------29.67- 86.2 90.7----
2024-05-26 05:42 pm-------29.67- 86.5 90.9----
2024-05-26 05:36 pm-------29.67- 86.7 90.9----
2024-05-26 05:30 pm-------29.67-- 90.5----
2024-05-26 05:24 pm-------29.67-- 89.2----
2024-05-26 05:18 pm-------29.67- 86.4 90.3----
2024-05-26 05:12 pm-------29.67- 86.5 90.5----
2024-05-26 05:06 pm-------29.67- 86.5 90.5----
2024-05-26 05:00 pm-------29.67-0.02 86.9 89.2----
2024-05-26 04:54 pm-------29.67- 86.7 89.6----
2024-05-26 04:48 pm-------29.67-- 90.5----
2024-05-26 04:42 pm-------29.67-- 90.3----
2024-05-26 04:36 pm-------29.67-- 90.5----
2024-05-26 04:30 pm-------29.67- 86.7 90.3----
2024-05-26 04:24 pm-------29.67- 86.9 90.3----
2024-05-26 04:18 pm-------29.67- 86.7 90.3----
2024-05-26 04:12 pm-------29.67- 86.9 90.7----
2024-05-26 04:06 pm-------29.67- 87.6 90.5----
2024-05-26 04:00 pm-------29.67- 87.4 89.8----
2024-05-26 03:54 pm-------29.67- 87.1 90.3----